[[{"header":{"parameterUnit":"m.s-1","parameterCategory":1,"la1":30.2991,"la2":30.254,"lo1":-89.0895,"lo2":-89.0444,"dy":0.0017,"dx":0.0017,"nx":28,"ny":28,"refTime":"2025-05-25T21:00:00:Z","depth":0,"parameterNumber":2,"parameterNumberName":"U-component_of_WINDS"},"data":[0,0,0,0,0,0,0,0,0,0,0,0,0,0,0,0,0,0,0,0,0,0,0,0,0,0,0,0,0,0,0,0,0,0,0,0,0,0,0,0,0,0,0,0,0,0,0,0,0,0,0,0,0,0,0,0,0,0,-1.6453,-1.6453,0,-1.641,-1.6409,-1.6409,-1.6383,-1.6383,-1.6383,-1.6382,-1.6337,-1.6335,-1.6334,0,0,0,0,0,0,0,0,0,0,0,0,0,-1.6511,-1.651,-1.6453,-1.6453,-1.6452,-1.641,-1.6409,-1.6409,-1.6383,-1.6383,-1.6383,-1.6382,-1.6337,-1.6336,-1.6334,0,0,0,0,0,0,0,0,0,0,0,0,0,-1.6479,-1.651,-1.6454,-1.6434,-1.6432,-1.641,-1.6409,-1.6409,-1.6383,-1.6383,-1.6382,-1.6382,-1.6337,-1.6336,-1.6334,-1.6327,0,0,-1.6329,-1.6328,0,0,0,0,0,0,0,0,-1.6481,-1.6477,-1.6438,-1.6436,-1.6433,-1.6402,-1.6413,-1.6381,-1.6383,-1.6402,-1.6382,-1.6382,-1.6358,-1.6355,-1.6347,-1.6325,-1.6323,-1.6329,-1.6328,-1.6327,-1.6327,0,0,0,0,0,0,0,-1.6483,-1.6478,-1.6436,-1.6437,-1.6434,-1.6427,-1.6422,-1.6407,-1.6381,-1.64,-1.6398,-1.6393,-1.6357,-1.6349,-1.6346,-1.6323,-1.6329,-1.6327,-1.6326,-1.6326,-1.629,-1.629,0,0,0,0,0,0,-1.6489,-1.648,-1.6438,-1.6435,-1.6457,-1.6426,-1.6421,-1.6412,-1.6381,-1.6377,-1.6393,-1.6392,-1.6352,-1.6348,-1.6344,-1.6332,-1.6327,-1.6326,-1.6325,-1.629,-1.629,-1.629,0,0,0,0,0,0,-1.649,-1.6485,-1.6439,-1.6457,-1.6451,-1.6425,-1.6416,-1.6411,-1.6403,-1.6377,-1.6372,-1.639,-1.6351,-1.6346,-1.6331,-1.6331,-1.6325,-1.6323,-1.629,-1.629,-1.629,-1.631,0,0,0,0,0,0,-1.6492,-1.6486,-1.6484,-1.6457,-1.645,-1.6428,-1.6416,-1.641,-1.64,-1.6398,-1.6372,-1.6367,-1.6351,-1.6334,-1.633,-1.6328,-1.6322,-1.629,-1.629,-1.629,-1.631,-1.6311,-1.6312,0,0,0,0,0,-1.6494,-1.6491,-1.6484,-1.6479,-1.6447,-1.6428,-1.6424,-1.6405,-1.64,-1.6397,-1.638,-1.6368,-1.6331,-1.6332,-1.6327,-1.6326,-1.629,-1.629,-1.629,-1.6309,-1.6311,-1.6312,0,0,0,0,0,0,-1.6518,-1.6487,-1.6479,-1.6468,-1.6451,-1.6424,-1.642,-1.6408,-1.6392,-1.6391,-1.6368,-1.6362,-1.6349,-1.6336,-1.6337,-1.6316,-1.6309,-1.6308,-1.6325,-1.6327,-1.6328,-1.6331,-1.6321,0,0,0,0,0,-1.6522,-1.651,-1.6484,-1.6477,-1.6469,-1.6446,-1.6437,-1.6424,-1.6405,-1.6398,-1.6379,-1.6361,-1.6345,-1.6335,-1.6319,-1.6308,-1.63,-1.6304,-1.6305,-1.6306,-1.6306,-1.6296,-1.6297,-1.6291,-1.6291,-1.6291,0,0,-1.6531,-1.6512,-1.6506,-1.6481,-1.6466,-1.6453,-1.644,-1.6427,-1.6417,-1.6396,-1.638,-1.6366,-1.6344,-1.633,-1.6322,-1.6318,-1.6306,-1.6306,-1.6308,-1.6306,-1.6296,-1.6297,-1.6298,-1.6291,-1.6291,-1.6291,0,0,-1.6539,-1.6525,-1.6516,-1.6501,-1.6479,-1.6464,-1.6462,-1.6436,-1.6426,-1.641,-1.6393,-1.638,-1.6353,-1.6338,-1.6326,-1.6327,-1.6314,-1.6322,-1.6329,-1.632,-1.6321,-1.6321,-1.632,-1.632,-1.6322,-1.6322,-1.6322,0,-1.6552,-1.6533,-1.6513,-1.6501,-1.6489,-1.6469,-1.646,-1.6446,-1.642,-1.6412,-1.6408,-1.6373,-1.6357,-1.6338,-1.6338,-1.633,-1.6325,-1.6325,-1.6322,-1.6323,-1.6322,-1.6321,-1.6321,-1.6323,-1.6322,-1.6322,-1.6322,0,-1.6549,-1.6535,-1.6531,-1.6506,-1.6494,-1.6483,-1.6461,-1.6451,-1.6439,-1.6423,-1.6406,-1.6385,-1.6364,-1.6359,-1.6347,-1.6337,-1.6335,-1.6327,-1.6319,-1.6324,-1.6322,-1.6322,-1.6324,-1.6324,-1.6323,-1.6323,0,0,-1.6572,-1.6535,-1.6534,-1.6521,-1.6495,-1.6483,-1.6471,-1.645,-1.6441,-1.6423,-1.6411,-1.6388,-1.638,-1.6367,-1.6353,-1.6345,-1.6344,-1.6337,-1.6337,-1.6338,-1.6331,-1.6337,-1.6336,-1.6336,-1.6336,-1.6336,-1.6332,0,-1.6575,-1.6552,-1.6534,-1.6517,-1.6504,-1.6484,-1.6472,-1.6454,-1.6439,-1.6424,-1.6407,-1.6391,-1.6382,-1.6374,-1.6365,-1.6346,-1.6342,-1.6346,-1.6323,-1.6323,-1.6329,-1.6335,-1.6342,-1.634,-1.6331,-1.6331,-1.6331,0,-1.6576,-1.6559,-1.6541,-1.6515,-1.6508,-1.6499,-1.6477,-1.6464,-1.6442,-1.6431,-1.6416,-1.6401,-1.6385,-1.6379,-1.6356,-1.6359,-1.6348,-1.6337,-1.6336,-1.6333,-1.6327,-1.6331,-1.6339,-1.6338,-1.633,-1.633,-1.633,0,-1.6593,-1.6565,-1.6551,-1.6541,-1.651,-1.6503,-1.6489,-1.6467,-1.6456,-1.6436,-1.6428,-1.6407,-1.6396,-1.6379,-1.6358,-1.6356,-1.6337,-1.6329,-1.6326,-1.6326,-1.6323,-1.6323,-1.6327,-1.6317,-1.6317,-1.6317,-1.6317,0,-1.6599,-1.6588,-1.6558,-1.6549,-1.6536,-1.6514,-1.6501,-1.6486,-1.6466,-1.6453,-1.6434,-1.6422,-1.6395,-1.6379,-1.6362,-1.6345,-1.634,-1.6329,-1.6325,-1.6331,-1.6332,-1.6323,-1.6322,-1.6317,-1.6317,-1.6317,-1.6317,0,-1.6615,-1.6595,-1.6577,-1.6549,-1.6541,-1.6533,-1.6508,-1.6497,-1.6481,-1.6464,-1.6458,-1.6432,-1.6412,-1.6389,-1.6361,-1.635,-1.6333,-1.6327,-1.6341,-1.6338,-1.6335,-1.6336,-1.6334,-1.6331,-1.6324,-1.6324,-1.6324,0,-1.662,-1.6611,-1.6581,-1.6571,-1.6558,-1.6542,-1.653,-1.6507,-1.6495,-1.6468,-1.6461,-1.6439,-1.6421,-1.6389,-1.6367,-1.6345,-1.6338,-1.6338,-1.6334,-1.634,-1.6336,-1.6337,-1.6335,-1.6339,-1.634,-1.634,-1.634,0,-1.6629,-1.6619,-1.6602,-1.6582,-1.6567,-1.655,-1.6531,-1.6524,-1.6497,-1.6484,-1.6463,-1.6449,-1.642,-1.6398,-1.6373,-1.6358,-1.6344,-1.6341,-1.6339,-1.6345,-1.6352,-1.6347,-1.6343,-1.6341,-1.6341,-1.6341,-1.6341,-1.6341,-1.6639,-1.663,-1.6607,-1.6589,-1.6572,-1.6555,-1.6544,-1.6525,-1.6508,-1.6483,-1.647,-1.6449,-1.6426,-1.6391,-1.6376,-1.6358,-1.6353,-1.6351,-1.635,-1.6349,-1.635,-1.6356,-1.6353,-1.6353,-1.6353,-1.6353,-1.6353,0,-1.6646,-1.663,-1.6614,-1.6589,-1.6573,-1.6562,-1.6541,-1.6529,-1.6511,-1.649,-1.6472,-1.6447,-1.6425,-1.6401,-1.6377,-1.6367,-1.636,-1.6362,-1.6362,-1.6358,-1.6356,-1.636,-1.6368,-1.6368,-1.6368,-1.6368,-1.6368,-1.6368,-1.6648,-1.6632,-1.6619,-1.6593,-1.6577,-1.6557,-1.6546,-1.6529,-1.6512,-1.6486,-1.6468,-1.6452,-1.6429,-1.6403,-1.6382,-1.6375,-1.6367,-1.637,-1.6362,-1.636,-1.6359,-1.6358,-1.6361,-1.6369,-1.6369,-1.6365,-1.6365,-1.6365]},{"header":{"parameterUnit":"m.s-1","parameterCategory":1,"la1":30.2991,"la2":30.254,"lo1":-89.0895,"lo2":-89.0444,"dy":0.0017,"dx":0.0017,"nx":28,"ny":28,"refTime":"2025-05-25T21:00:00:Z","depth":0,"parameterNumber":3,"parameterNumberName":"V-component_of_WINDS"},"data":[0,0,0,0,0,0,0,0,0,0,0,0,0,0,0,0,0,0,0,0,0,0,0,0,0,0,0,0,0,0,0,0,0,0,0,0,0,0,0,0,0,0,0,0,0,0,0,0,0,0,0,0,0,0,0,0,0,0,1.6272,1.6271,0,1.6177,1.6176,1.6175,1.6142,1.6142,1.6142,1.6143,1.6043,1.604,1.6037,0,0,0,0,0,0,0,0,0,0,0,0,0,1.6421,1.6418,1.6272,1.6271,1.6269,1.6178,1.6176,1.6175,1.6142,1.6142,1.6143,1.6143,1.6044,1.604,1.6037,0,0,0,0,0,0,0,0,0,0,0,0,0,1.6344,1.6417,1.6272,1.6242,1.6238,1.6178,1.6176,1.6175,1.6142,1.6142,1.6143,1.6143,1.6045,1.6041,1.6036,1.5998,0,0,1.6022,1.602,0,0,0,0,0,0,0,0,1.6349,1.6339,1.6247,1.6244,1.624,1.6172,1.6192,1.6115,1.6141,1.6178,1.6143,1.6143,1.6085,1.6077,1.6058,1.5993,1.5989,1.6022,1.6019,1.6017,1.6016,0,0,0,0,0,0,0,1.6354,1.6343,1.6234,1.6246,1.6241,1.6232,1.6222,1.6177,1.613,1.6175,1.6172,1.6162,1.6083,1.6063,1.6056,1.5987,1.6022,1.6018,1.6015,1.6014,1.5888,1.5888,0,0,0,0,0,0,1.6365,1.6347,1.6237,1.6231,1.6297,1.6229,1.6218,1.6193,1.613,1.6121,1.6162,1.6161,1.607,1.6061,1.6052,1.6004,1.6017,1.6013,1.6011,1.5889,1.5888,1.5887,0,0,0,0,0,0,1.6368,1.6355,1.6241,1.6289,1.6273,1.6226,1.6199,1.6191,1.6171,1.612,1.6111,1.615,1.607,1.6058,1.6012,1.6,1.6011,1.6007,1.589,1.5889,1.5888,1.5908,0,0,0,0,0,0,1.6373,1.6357,1.6342,1.6289,1.6271,1.6203,1.6198,1.6189,1.6163,1.6161,1.6107,1.6098,1.607,1.6019,1.6008,1.5994,1.6004,1.589,1.5889,1.5888,1.5908,1.5908,1.5907,0,0,0,0,0,1.6378,1.635,1.6341,1.6328,1.6252,1.6203,1.6192,1.6162,1.6163,1.6147,1.6115,1.61,1.6004,1.6015,1.6002,1.5987,1.5891,1.589,1.5888,1.5908,1.5908,1.5907,0,0,0,0,0,0,1.6401,1.6342,1.6332,1.6286,1.625,1.6197,1.6176,1.6162,1.6124,1.6123,1.6086,1.6074,1.6031,1.6004,1.6017,1.5947,1.5947,1.5942,1.5966,1.5965,1.5965,1.5972,1.6,0,0,0,0,0,1.6401,1.6367,1.6317,1.6282,1.6264,1.6224,1.6201,1.6181,1.6141,1.6125,1.609,1.6051,1.6013,1.5987,1.5949,1.5905,1.5892,1.5888,1.5888,1.5888,1.5884,1.586,1.5858,1.5883,1.5883,1.5883,0,0,1.64,1.6364,1.6344,1.6285,1.6255,1.622,1.6211,1.6174,1.6148,1.6119,1.6074,1.6047,1.6001,1.5957,1.5935,1.5933,1.5875,1.5886,1.5886,1.5883,1.5859,1.5856,1.5854,1.5882,1.5882,1.5882,0,0,1.638,1.635,1.6317,1.6288,1.6243,1.6217,1.6209,1.6159,1.614,1.6095,1.6074,1.6042,1.5976,1.5945,1.592,1.5893,1.5877,1.5881,1.5879,1.5856,1.5854,1.5852,1.5843,1.584,1.5878,1.5878,1.5878,0,1.6384,1.6332,1.6302,1.6267,1.6242,1.6218,1.6185,1.6157,1.6101,1.6084,1.6084,1.6002,1.5969,1.5917,1.5911,1.5892,1.5882,1.5887,1.5857,1.5855,1.5853,1.5843,1.584,1.5879,1.5879,1.5879,1.5879,0,1.634,1.6304,1.6283,1.6232,1.6205,1.6171,1.6136,1.6112,1.6095,1.6069,1.6024,1.5985,1.5939,1.5925,1.5907,1.5871,1.5872,1.5865,1.5863,1.5852,1.5842,1.5838,1.588,1.588,1.588,1.5879,0,0,1.633,1.6265,1.6258,1.6235,1.6185,1.6156,1.6122,1.6079,1.6059,1.6022,1.5993,1.5939,1.5933,1.5905,1.5884,1.5864,1.5846,1.5859,1.5858,1.5858,1.5805,1.5811,1.5807,1.5836,1.5835,1.5835,1.5809,0,1.6304,1.6242,1.6216,1.6166,1.6133,1.6111,1.6081,1.6047,1.6022,1.5991,1.5963,1.5926,1.592,1.5904,1.5883,1.5853,1.5835,1.5854,1.5808,1.5806,1.582,1.5802,1.5807,1.5785,1.5805,1.5805,1.5804,0,1.6265,1.623,1.6178,1.6134,1.6119,1.6093,1.6052,1.6022,1.5983,1.5967,1.5938,1.5918,1.5882,1.5884,1.5833,1.5847,1.5827,1.5809,1.5807,1.5801,1.5804,1.5795,1.5777,1.5774,1.5798,1.5798,1.5799,0,1.6263,1.6203,1.6165,1.6146,1.6094,1.6076,1.6053,1.6015,1.5992,1.5956,1.594,1.5901,1.5879,1.5848,1.5819,1.5823,1.5771,1.577,1.5756,1.5757,1.5745,1.5746,1.5723,1.5733,1.5733,1.5733,1.5733,0,1.6237,1.6206,1.6164,1.614,1.6105,1.6075,1.6041,1.6017,1.5984,1.5955,1.5933,1.5906,1.5869,1.5837,1.5814,1.5776,1.5766,1.5751,1.5745,1.5753,1.5755,1.5739,1.5739,1.5732,1.5732,1.5733,1.5733,0,1.6229,1.6199,1.6156,1.6111,1.6099,1.6075,1.6037,1.6013,1.5989,1.5952,1.5942,1.5903,1.5865,1.5833,1.5783,1.5767,1.5728,1.5721,1.5741,1.5738,1.5726,1.5728,1.5691,1.5685,1.57,1.57,1.57,0,1.6214,1.619,1.6143,1.6123,1.6101,1.6068,1.6045,1.6015,1.5992,1.5948,1.593,1.5891,1.5858,1.5798,1.5765,1.5727,1.5719,1.5709,1.5712,1.5722,1.5719,1.5721,1.5718,1.5708,1.5708,1.5708,1.5708,0,1.619,1.6177,1.6145,1.6109,1.6082,1.6051,1.602,1.6004,1.5969,1.5944,1.5906,1.5881,1.5831,1.5792,1.5751,1.5727,1.5712,1.5708,1.5702,1.571,1.5723,1.5716,1.5741,1.5708,1.5708,1.5708,1.5708,1.5708,1.6178,1.6156,1.6121,1.6086,1.606,1.6032,1.6008,1.5982,1.595,1.5908,1.5893,1.5854,1.5818,1.5761,1.5738,1.5707,1.5704,1.5697,1.5695,1.5693,1.5695,1.5729,1.5699,1.5699,1.5699,1.5699,1.5699,0,1.6153,1.613,1.6099,1.6057,1.603,1.602,1.5986,1.5964,1.593,1.5899,1.5868,1.5825,1.5788,1.5754,1.5716,1.5698,1.569,1.5689,1.5689,1.5684,1.5699,1.5707,1.5696,1.5696,1.5696,1.5696,1.5696,1.5696,1.6137,1.6101,1.6085,1.6035,1.6012,1.5975,1.5957,1.5931,1.5906,1.5859,1.583,1.5808,1.5775,1.5735,1.5701,1.5692,1.5679,1.568,1.5669,1.5682,1.5683,1.5684,1.5692,1.5677,1.5677,1.5657,1.5657,1.5656]}]]